Location: *
(49.4547°N, 7.9131°E)
Time: 01:49:20
(UTC+00:00)

Cosmos 1605 Rocket - Pass Details

Date: 22 September 2019
Orbit: 945 x 1005 km, 82.9° (Epoch: 17 October)

Event Time Altitude Azimuth Distance (km) Brightness Sun altitude
Rises 20:33:16 0° 352° (N) 3,743 7.7 -28.8°
Reaches altitude 10° 20:35:51 10° 355° (N) 2,786 6.9 -29.1°
Enters shadow 20:41:34 61° 46° (NE) 1,124 4.2 -29.8°
